Location: Albany
(35.0000°S, 118.0000°E)
Time: 07:20:08
(UTC-05:00)

ADEOS Rocket - Visible Passes

Search period start: 29 January 2015 00:00
Search period end: 08 February 2015 00:00
Orbit: 859 x 1307 km, 98.7° (Epoch: 26 January)

Date Brightness Start Highest point End Pass type
(mag) Time Alt. Az. Time Alt. Az. Time Alt. Az.
29 Jan 2.8 07:26:59 10° SSE 07:32:42 58° E 07:38:07 10° N visible
29 Jan 5.4 09:14:11 10° SSW 09:17:44 16° WSW 09:20:55 10° W visible
30 Jan 4.0 06:39:18 10° SE 06:43:21 20° E 06:47:28 10° NE visible
30 Jan 3.9 08:23:49 10° S 08:29:15 42° WSW 08:34:23 10° NW visible
31 Jan 2.7 07:34:42 10° SSE 07:40:26 70° E 07:45:54 10° N visible
31 Jan 5.5 09:22:36 10° SSW 09:25:21 13° WSW 09:27:44 10° W visible
01 Feb 3.8 06:46:43 10° SE 06:51:11 24° E 06:55:40 10° NNE visible
01 Feb 4.3 08:31:45 10° S 08:36:55 35° WSW 08:41:50 10° NW visible
02 Feb 2.7 07:42:26 10° SSE 07:48:09 84° ENE 07:53:39 10° NNW visible
02 Feb 5.7 09:31:29 10° SW 09:32:58 11° WSW 09:34:04 10° WSW visible
03 Feb 3.6 06:54:11 10° SE 06:58:59 29° E 07:03:47 10° NNE visible
03 Feb 4.5 08:39:41 10° S 08:44:34 30° WSW 08:49:13 10° NW visible
04 Feb 2.8 07:50:11 10° S 07:55:51 82° WSW 08:01:22 10° NNW visible
05 Feb 3.3 07:01:43 10° SSE 07:06:46 35° E 07:11:49 10° NNE visible
05 Feb 4.8 08:47:41 10° SSW 08:52:13 25° WSW 08:56:32 10° WNW visible
06 Feb 3.0 07:57:58 10° S 08:03:33 68° WSW 08:09:01 10° NNW visible
07 Feb 3.1 07:09:17 10° SSE 07:14:33 42° E 07:19:48 10° N visible
07 Feb 5.1 08:55:44 10° SSW 08:59:52 21° WSW 09:03:47 10° WNW visible
